星链-32263 (STARLINK-32263)

导读

STARLINK-32263是美国太空探索技术公司(SpaceX)“星链”(Starlink)低轨互联网星座中的第二代迷你星链卫星(Starlink v2.0 mini),于2024年8月4日由“猎鹰九号”火箭从美国范登堡太空军基地发射升空。它运行在近地轨道,旨在为全球提供高速低延迟互联网服务,尤其为偏远、农村地区补充网络覆盖,是星链扩展全球卫星网络的重要组成部分。

基本信息
目录编号:
60371
目录名称:
STARLINK-32263
国际标识:
2024-138S
轨道中心:
EARTH
卫星名称:
星链-32263 (STARLINK-32263)
卫星全名:
星链-32263 (STARLINK-32263)
卫星状态:
在轨 (已飞行682 天)
发射日期:
2024-08-04 UTC
国别 :
美国 (US)
星等 :
--
轨道信息
数据来源 国际轨道数据 AOE轨道数据
星历时间 2026-06-17T16:55:21+0800
13小时前
查看轨道信息
2026-06-17T07:00:00+0800
23小时前
查看轨道信息
半长轴 6853.383km 6853.335km
偏心率 0.0001358 0.0001512
轨道倾角 53.160° 53.158°
近地点辐角 77.949° 72.091°
升交点赤经 206.290° 208.210°
平近点角 282.167° 169.270°
近地点 474.315km 474.161km
远地点 476.177km 476.235km
周期 94.106分钟 94.105分钟
每日圈数 15.301898 15.302058
详细信息
卫星平台:
Starlink v2.0 mini
运营商:
太空探索技术公司
运营商所在国:
美国
制造商(研发单位):
太空探索技术公司
制造商所在国:
美国
使用方式:
暂无
卫星简介
星链(Starlink)计划是由太空探索技术公司(SpaceX)提出的一个巨型低轨卫星互联网星座项目,计划在2019年至2024年间在太空搭建由约1.2万颗卫星组成的“星链”网络,其中1584颗将部署在地球上空550千米处的近地轨道,并从2020年开始工作。该卫星仍在工作。
2D轨道图
3D轨道图
轨道高度分析图
轨道倾角分析图
轨道综合分析图
查看轨道综合分析图